Wetterdaten: Dienstag, 09.09.2014
Datum Zeit Temp. A. Feuchte A. Luftdruck Regen Wind Richtung Richtung Sonnenschein ET UV Solar Taupunkt Windchill Windben Empfang
09.09.2014 00:00 14,9 C 92 % 1013,6 hPa 0,0 l/m 0,0 km/h (0 Bft) S 173 0 min 0,000 mm 0,0 UV-I 0 W/m 13,6 C 14,9 C 0,0 km/h (0 Bft) 0,00 %
09.09.2014 00:15 14,8 C 93 % 1014,0 hPa 0,0 l/m 0,0 km/h (0 Bft) S 173 0 min 0,000 mm 0,0 UV-I 0 W/m 13,7 C 14,8 C 0,0 km/h (0 Bft) 0,00 %
09.09.2014 00:30 14,5 C 94 % 1014,0 hPa 0,0 l/m 0,0 km/h (0 Bft) SW 220 0 min 0,000 mm 0,0 UV-I 0 W/m 13,5 C 14,5 C 0,0 km/h (0 Bft) 0,00 %
09.09.2014 00:45 14,4 C 94 % 1014,0 hPa 0,0 l/m 0,0 km/h (0 Bft) SW 219 0 min 0,000 mm 0,0 UV-I 0 W/m 13,4 C 14,4 C 0,0 km/h (0 Bft) 0,00 %
09.09.2014 01:00 14,5 C 95 % 1013,6 hPa 0,0 l/m 0,0 km/h (0 Bft) SW 219 0 min 0,000 mm 0,0 UV-I 0 W/m 13,7 C 14,5 C 0,0 km/h (0 Bft) 0,00 %
09.09.2014 01:15 14,5 C 95 % 1013,6 hPa 0,0 l/m 0,0 km/h (0 Bft) SW 219 0 min 0,000 mm 0,0 UV-I 0 W/m 13,7 C 14,5 C 0,0 km/h (0 Bft) 0,00 %
09.09.2014 01:30 14,5 C 94 % 1013,6 hPa 0,0 l/m 0,0 km/h (0 Bft) SW 219 0 min 0,000 mm 0,0 UV-I 0 W/m 13,5 C 14,5 C 0,0 km/h (0 Bft) 0,00 %
09.09.2014 01:45 14,5 C 94 % 1013,9 hPa 0,0 l/m 0,0 km/h (0 Bft) SW 219 0 min 0,000 mm 0,0 UV-I 0 W/m 13,5 C 14,5 C 0,0 km/h (0 Bft) 0,00 %
09.09.2014 02:00 14,3 C 94 % 1013,9 hPa 0,0 l/m 0,0 km/h (0 Bft) SW 219 0 min 0,000 mm 0,0 UV-I 0 W/m 13,3 C 14,3 C 0,0 km/h (0 Bft) 0,00 %
09.09.2014 02:15 14,1 C 95 % 1013,7 hPa 0,0 l/m 0,0 km/h (0 Bft) SW 219 0 min 0,000 mm 0,0 UV-I 0 W/m 13,3 C 14,1 C 0,0 km/h (0 Bft) 0,00 %
09.09.2014 02:30 13,9 C 96 % 1013,7 hPa 0,0 l/m 0,0 km/h (0 Bft) SW 231 0 min 0,000 mm 0,0 UV-I 0 W/m 13,3 C 13,9 C 0,0 km/h (0 Bft) 0,00 %
09.09.2014 02:45 13,7 C 96 % 1013,8 hPa 0,0 l/m 0,0 km/h (0 Bft) W-SW 251 0 min 0,000 mm 0,0 UV-I 0 W/m 13,1 C 13,7 C 0,0 km/h (0 Bft) 0,00 %
09.09.2014 03:00 13,8 C 96 % 1013,9 hPa 0,0 l/m 0,0 km/h (0 Bft) W-NW 283 0 min 0,000 mm 0,0 UV-I 0 W/m 13,2 C 13,8 C 0,0 km/h (0 Bft) 0,00 %
09.09.2014 03:15 14,0 C 96 % 1013,9 hPa 0,0 l/m 0,0 km/h (0 Bft) W-NW 299 0 min 0,000 mm 0,0 UV-I 0 W/m 13,4 C 14,0 C 7,9 km/h (2 Bft) 0,00 %
09.09.2014 03:30 14,3 C 95 % 1014,1 hPa 0,0 l/m 0,0 km/h (0 Bft) W 276 0 min 0,000 mm 0,0 UV-I 0 W/m 13,5 C 14,3 C 0,0 km/h (0 Bft) 0,00 %
09.09.2014 03:45 14,5 C 94 % 1013,9 hPa 0,0 l/m 0,0 km/h (0 Bft) W-SW 253 0 min 0,000 mm 0,0 UV-I 0 W/m 13,5 C 14,5 C 0,0 km/h (0 Bft) 0,00 %
09.09.2014 04:00 14,9 C 92 % 1013,3 hPa 3,3 l/m 5,8 km/h (2 Bft) W-SW 249 0 min 0,000 mm 0,0 UV-I 0 W/m 13,6 C 14,9 C 0,0 km/h (0 Bft) 0,00 %
09.09.2014 04:15 14,8 C 94 % 1013,7 hPa 0,3 l/m 0,0 km/h (0 Bft) W-SW 250 0 min 0,000 mm 0,0 UV-I 0 W/m 13,8 C 14,8 C 0,0 km/h (0 Bft) 0,00 %
09.09.2014 04:30 14,7 C 94 % 1013,4 hPa 0,0 l/m 0,0 km/h (0 Bft) W-SW 253 0 min 0,000 mm 0,0 UV-I 0 W/m 13,7 C 14,7 C 0,0 km/h (0 Bft) 0,00 %
09.09.2014 04:45 14,6 C 95 % 1013,8 hPa 0,0 l/m 0,0 km/h (0 Bft) W-NW 302 0 min 0,000 mm 0,0 UV-I 0 W/m 13,8 C 14,6 C 0,0 km/h (0 Bft) 0,00 %
09.09.2014 05:00 14,6 C 95 % 1013,9 hPa 0,0 l/m 0,0 km/h (0 Bft) W-SW 243 0 min 0,000 mm 0,0 UV-I 0 W/m 13,8 C 14,6 C 0,0 km/h (0 Bft) 0,00 %
09.09.2014 05:15 14,5 C 96 % 1013,9 hPa 0,0 l/m 0,0 km/h (0 Bft) W 265 0 min 0,000 mm 0,0 UV-I 0 W/m 13,9 C 14,5 C 0,0 km/h (0 Bft) 0,00 %
09.09.2014 05:30 14,5 C 96 % 1013,6 hPa 0,0 l/m 0,0 km/h (0 Bft) S-SW 209 0 min 0,000 mm 0,0 UV-I 0 W/m 13,9 C 14,5 C 0,0 km/h (0 Bft) 0,00 %
09.09.2014 05:45 14,5 C 96 % 1013,8 hPa 0,0 l/m 0,0 km/h (0 Bft) S-SW 202 0 min 0,000 mm 0,0 UV-I 0 W/m 13,9 C 14,5 C 0,0 km/h (0 Bft) 0,00 %
09.09.2014 06:00 14,4 C 96 % 1014,6 hPa 0,0 l/m 0,0 km/h (0 Bft) SW 235 0 min 0,000 mm 0,0 UV-I 0 W/m 13,8 C 14,4 C 0,0 km/h (0 Bft) 0,00 %
09.09.2014 06:15 14,4 C 96 % 1014,4 hPa 0,0 l/m 0,0 km/h (0 Bft) W-NW 300 0 min 0,000 mm 0,0 UV-I 0 W/m 13,8 C 14,4 C 0,0 km/h (0 Bft) 0,00 %
09.09.2014 06:30 14,3 C 97 % 1014,4 hPa 0,0 l/m 0,0 km/h (0 Bft) W-SW 256 0 min 0,000 mm 0,0 UV-I 0 W/m 13,8 C 14,3 C 0,0 km/h (0 Bft) 0,00 %
09.09.2014 06:45 14,3 C 97 % 1014,1 hPa 0,0 l/m 0,0 km/h (0 Bft) W-SW 257 15 min 0,000 mm 1,0 UV-I 16 W/m 13,8 C 14,3 C 0,0 km/h (0 Bft) 0,00 %
09.09.2014 07:00 14,8 C 96 % 1013,9 hPa 0,0 l/m 0,0 km/h (0 Bft) S 173 15 min 0,000 mm 1,0 UV-I 57 W/m 14,2 C 14,8 C 0,0 km/h (0 Bft) 0,00 %
09.09.2014 07:15 15,2 C 96 % 1013,7 hPa 1,2 l/m 0,0 km/h (0 Bft) S-SW 211 0 min 0,000 mm 1,0 UV-I 31 W/m 14,6 C 15,2 C 0,0 km/h (0 Bft) 0,00 %
09.09.2014 07:30 15,1 C 96 % 1013,9 hPa 0,0 l/m 0,0 km/h (0 Bft) SW 226 0 min 0,000 mm 1,0 UV-I 37 W/m 14,5 C 15,1 C 0,0 km/h (0 Bft) 0,00 %
09.09.2014 07:45 15,2 C 95 % 1014,1 hPa 0,0 l/m 0,0 km/h (0 Bft) SW 216 0 min 0,000 mm 1,0 UV-I 75 W/m 14,4 C 15,2 C 0,0 km/h (0 Bft) 0,00 %
09.09.2014 08:00 15,7 C 94 % 1013,9 hPa 0,0 l/m 0,0 km/h (0 Bft) S 187 0 min 0,000 mm 2,0 UV-I 114 W/m 14,7 C 15,7 C 0,0 km/h (0 Bft) 0,00 %
09.09.2014 08:15 16,1 C 92 % 1014,1 hPa 0,0 l/m 0,0 km/h (0 Bft) O 86 0 min 0,000 mm 2,0 UV-I 106 W/m 14,8 C 16,1 C 0,0 km/h (0 Bft) 0,00 %
09.09.2014 08:30 16,6 C 90 % 1014,3 hPa 0,0 l/m 0,0 km/h (0 Bft) W-SW 256 0 min 0,000 mm 2,0 UV-I 119 W/m 15,0 C 16,6 C 0,0 km/h (0 Bft) 0,00 %
09.09.2014 08:45 16,9 C 89 % 1014,2 hPa 0,0 l/m 0,0 km/h (0 Bft) S 177 0 min 0,000 mm 1,0 UV-I 165 W/m 15,1 C 16,9 C 0,0 km/h (0 Bft) 0,00 %
09.09.2014 09:00 17,3 C 87 % 1014,2 hPa 0,0 l/m 0,0 km/h (0 Bft) SW 219 0 min 0,000 mm 1,0 UV-I 185 W/m 15,1 C 17,3 C 0,0 km/h (0 Bft) 0,00 %
09.09.2014 09:15 18,3 C 84 % 1014,1 hPa 0,0 l/m 0,0 km/h (0 Bft) W-SW 254 0 min 0,000 mm 2,0 UV-I 229 W/m 15,5 C 18,3 C 0,0 km/h (0 Bft) 0,00 %
09.09.2014 09:30 18,2 C 84 % 1014,1 hPa 0,0 l/m 0,0 km/h (0 Bft) SW 220 0 min 0,000 mm 3,0 UV-I 126 W/m 15,4 C 18,2 C 4,0 km/h (1 Bft) 0,00 %
09.09.2014 09:45 17,5 C 87 % 1014,0 hPa 0,3 l/m 0,0 km/h (0 Bft) W-SW 239 0 min 0,000 mm 2,0 UV-I 118 W/m 15,3 C 17,5 C 0,0 km/h (0 Bft) 0,00 %
09.09.2014 10:00 17,5 C 87 % 1014,4 hPa 0,0 l/m 0,0 km/h (0 Bft) O-NO 77 0 min 0,000 mm 4,0 UV-I 156 W/m 15,3 C 17,5 C 0,0 km/h (0 Bft) 0,00 %
09.09.2014 10:15 18,0 C 86 % 1014,5 hPa 0,0 l/m 0,4 km/h (0 Bft) W-SW 237 0 min 0,000 mm 5,0 UV-I 276 W/m 15,6 C 18,0 C 0,0 km/h (0 Bft) 0,00 %
09.09.2014 10:30 18,6 C 83 % 1014,6 hPa 0,0 l/m 0,0 km/h (0 Bft) SW 234 0 min 0,000 mm 5,0 UV-I 168 W/m 15,7 C 18,6 C 4,0 km/h (1 Bft) 0,00 %
09.09.2014 10:45 18,5 C 83 % 1014,3 hPa 0,0 l/m 0,0 km/h (0 Bft) W-SW 256 15 min 0,000 mm 3,0 UV-I 358 W/m 15,6 C 18,5 C 4,0 km/h (1 Bft) 0,00 %
09.09.2014 11:00 20,1 C 77 % 1014,3 hPa 0,0 l/m 0,0 km/h (0 Bft) W-SW 255 0 min 0,000 mm 4,0 UV-I 314 W/m 15,9 C 20,1 C 0,0 km/h (0 Bft) 0,00 %
09.09.2014 11:15 20,7 C 72 % 1014,2 hPa 0,0 l/m 2,9 km/h (1 Bft) SW 225 15 min 0,000 mm 3,0 UV-I 521 W/m 15,5 C 20,7 C 0,0 km/h (0 Bft) 0,00 %
09.09.2014 11:30 21,1 C 73 % 1014,2 hPa 0,0 l/m 0,4 km/h (0 Bft) SW 226 15 min 0,000 mm 7,0 UV-I 440 W/m 16,1 C 21,1 C 0,0 km/h (0 Bft) 0,00 %
09.09.2014 11:45 20,0 C 72 % 1014,2 hPa 0,0 l/m 0,0 km/h (0 Bft) S-SW 208 0 min 0,000 mm 4,0 UV-I 302 W/m 14,8 C 20,0 C 0,0 km/h (0 Bft) 0,00 %
09.09.2014 12:00 20,3 C 74 % 1014,3 hPa 0,0 l/m 0,0 km/h (0 Bft) W-SW 255 0 min 0,000 mm 4,0 UV-I 249 W/m 15,5 C 20,3 C 0,0 km/h (0 Bft) 0,00 %
09.09.2014 12:15 20,1 C 72 % 1013,8 hPa 0,0 l/m 0,0 km/h (0 Bft) SW 215 0 min 0,000 mm 6,0 UV-I 248 W/m 14,9 C 20,1 C 0,0 km/h (0 Bft) 0,00 %
09.09.2014 12:30 21,3 C 69 % 1013,9 hPa 0,0 l/m 0,0 km/h (0 Bft) N 349 0 min 0,000 mm 6,0 UV-I 310 W/m 15,4 C 21,3 C 4,0 km/h (1 Bft) 0,00 %
09.09.2014 12:45 21,2 C 69 % 1013,7 hPa 0,0 l/m 0,0 km/h (0 Bft) W-SW 256 0 min 0,000 mm 6,0 UV-I 314 W/m 15,3 C 21,2 C 0,0 km/h (0 Bft) 0,00 %
09.09.2014 13:00 22,1 C 65 % 1013,2 hPa 0,0 l/m 0,0 km/h (0 Bft) N-NW 327 15 min 0,000 mm 6,0 UV-I 677 W/m 15,2 C 22,1 C 4,0 km/h (1 Bft) 0,00 %
09.09.2014 13:15 22,0 C 67 % 1013,0 hPa 0,0 l/m 0,4 km/h (0 Bft) W-SW 256 15 min 0,000 mm 3,0 UV-I 673 W/m 15,6 C 22,0 C 0,0 km/h (0 Bft) 0,00 %
09.09.2014 13:30 21,9 C 66 % 1012,7 hPa 0,0 l/m 0,0 km/h (0 Bft) W-SW 248 15 min 0,000 mm 5,0 UV-I 700 W/m 15,3 C 21,9 C 4,0 km/h (1 Bft) 0,00 %
09.09.2014 13:45 23,0 C 61 % 1012,3 hPa 0,0 l/m 0,4 km/h (0 Bft) W-NW 302 15 min 0,000 mm 4,0 UV-I 738 W/m 15,1 C 23,0 C 0,0 km/h (0 Bft) 0,00 %
09.09.2014 14:00 23,6 C 61 % 1012,7 hPa 0,0 l/m 0,0 km/h (0 Bft) N-NW 345 0 min 0,000 mm 3,0 UV-I 256 W/m 15,6 C 23,6 C 4,0 km/h (1 Bft) 0,00 %
09.09.2014 14:15 23,0 C 63 % 1012,1 hPa 0,0 l/m 1,4 km/h (1 Bft) W 279 0 min 0,000 mm 3,0 UV-I 288 W/m 15,6 C 23,0 C 0,0 km/h (0 Bft) 0,00 %
09.09.2014 14:30 23,5 C 62 % 1012,2 hPa 0,0 l/m 0,0 km/h (0 Bft) S-SW 208 15 min 0,000 mm 3,0 UV-I 442 W/m 15,8 C 23,5 C 0,0 km/h (0 Bft) 0,00 %
09.09.2014 14:45 23,4 C 61 % 1011,7 hPa 0,0 l/m 0,4 km/h (0 Bft) N-NW 331 15 min 0,000 mm 3,0 UV-I 693 W/m 15,4 C 23,4 C 0,0 km/h (0 Bft) 0,00 %
09.09.2014 15:00 22,7 C 62 % 1012,1 hPa 0,0 l/m 0,0 km/h (0 Bft) W-SW 256 15 min 0,000 mm 3,0 UV-I 367 W/m 15,0 C 22,7 C 4,0 km/h (1 Bft) 0,00 %
09.09.2014 15:15 22,4 C 67 % 1012,5 hPa 0,0 l/m 0,0 km/h (0 Bft) SW 228 0 min 0,000 mm 3,0 UV-I 262 W/m 16,0 C 22,4 C 0,0 km/h (0 Bft) 0,00 %
09.09.2014 15:30 22,6 C 63 % 1011,6 hPa 0,0 l/m 0,0 km/h (0 Bft) N-NW 333 0 min 0,000 mm 2,0 UV-I 243 W/m 15,2 C 22,6 C 0,0 km/h (0 Bft) 0,00 %
09.09.2014 15:45 23,0 C 61 % 1011,5 hPa 0,0 l/m 0,7 km/h (0 Bft) W 272 0 min 0,000 mm 2,0 UV-I 227 W/m 15,1 C 23,0 C 0,0 km/h (0 Bft) 0,00 %
09.09.2014 16:00 23,1 C 61 % 1011,2 hPa 0,0 l/m 0,0 km/h (0 Bft) W-SW 256 0 min 0,000 mm 2,0 UV-I 237 W/m 15,2 C 23,1 C 0,0 km/h (0 Bft) 0,00 %
09.09.2014 16:15 22,8 C 64 % 1011,8 hPa 0,0 l/m 0,0 km/h (0 Bft) SW 231 0 min 0,000 mm 2,0 UV-I 155 W/m 15,6 C 22,8 C 0,0 km/h (0 Bft) 0,00 %
09.09.2014 16:30 22,2 C 64 % 1011,4 hPa 0,0 l/m 0,0 km/h (0 Bft) W-SW 255 0 min 0,000 mm 2,0 UV-I 173 W/m 15,1 C 22,2 C 0,0 km/h (0 Bft) 0,00 %
09.09.2014 16:45 22,6 C 63 % 1011,6 hPa 0,0 l/m 0,0 km/h (0 Bft) W-SW 256 0 min 0,000 mm 1,0 UV-I 162 W/m 15,2 C 22,6 C 4,0 km/h (1 Bft) 0,00 %
09.09.2014 17:00 22,8 C 62 % 1011,6 hPa 0,0 l/m 0,0 km/h (0 Bft) SW 230 15 min 0,000 mm 1,0 UV-I 260 W/m 15,1 C 22,8 C 0,0 km/h (0 Bft) 0,00 %
09.09.2014 17:15 23,8 C 56 % 1010,7 hPa 0,0 l/m 0,0 km/h (0 Bft) SW 224 15 min 0,000 mm 1,0 UV-I 520 W/m 14,5 C 23,8 C 0,0 km/h (0 Bft) 0,00 %
09.09.2014 17:30 23,2 C 61 % 1010,8 hPa 0,0 l/m 0,7 km/h (0 Bft) W-SW 253 15 min 0,000 mm 1,0 UV-I 289 W/m 15,3 C 23,2 C 0,0 km/h (0 Bft) 0,00 %
09.09.2014 17:45 23,2 C 60 % 1011,0 hPa 0,0 l/m 0,0 km/h (0 Bft) W-SW 251 15 min 0,000 mm 1,0 UV-I 360 W/m 15,0 C 23,2 C 0,0 km/h (0 Bft) 0,00 %
09.09.2014 18:00 23,3 C 60 % 1011,4 hPa 0,0 l/m 0,0 km/h (0 Bft) S-SW 200 15 min 0,000 mm 0,0 UV-I 177 W/m 15,1 C 23,3 C 0,0 km/h (0 Bft) 0,00 %
09.09.2014 18:15 22,0 C 63 % 1011,9 hPa 0,0 l/m 0,0 km/h (0 Bft) SW 214 0 min 0,000 mm 0,0 UV-I 76 W/m 14,6 C 22,0 C 0,0 km/h (0 Bft) 0,00 %
09.09.2014 18:30 21,0 C 69 % 1011,9 hPa 0,0 l/m 0,0 km/h (0 Bft) S 182 0 min 0,000 mm 0,0 UV-I 52 W/m 15,1 C 21,0 C 0,0 km/h (0 Bft) 0,00 %
09.09.2014 18:45 20,3 C 71 % 1011,8 hPa 0,0 l/m 0,0 km/h (0 Bft) S-SO 155 0 min 0,000 mm 0,0 UV-I 36 W/m 14,9 C 20,3 C 0,0 km/h (0 Bft) 0,00 %
09.09.2014 19:00 19,7 C 76 % 1011,7 hPa 0,0 l/m 0,0 km/h (0 Bft) S 172 0 min 0,000 mm 0,0 UV-I 11 W/m 15,3 C 19,7 C 0,0 km/h (0 Bft) 0,00 %
09.09.2014 19:15 19,1 C 81 % 1012,0 hPa 0,0 l/m 0,0 km/h (0 Bft) S-SO 155 0 min 0,000 mm 0,0 UV-I 0 W/m 15,8 C 19,1 C 0,0 km/h (0 Bft) 0,00 %
09.09.2014 19:30 18,6 C 81 % 1012,1 hPa 0,0 l/m 0,0 km/h (0 Bft) S-SO 155 0 min 0,000 mm 0,0 UV-I 0 W/m 15,3 C 18,6 C 0,0 km/h (0 Bft) 0,00 %
09.09.2014 19:45 18,3 C 81 % 1012,2 hPa 0,0 l/m 0,0 km/h (0 Bft) S-SW 199 0 min 0,000 mm 0,0 UV-I 0 W/m 15,0 C 18,3 C 0,0 km/h (0 Bft) 0,00 %
09.09.2014 20:00 18,2 C 81 % 1012,5 hPa 0,0 l/m 0,0 km/h (0 Bft) SO 143 0 min 0,000 mm 0,0 UV-I 0 W/m 14,9 C 18,2 C 0,0 km/h (0 Bft) 0,00 %
09.09.2014 20:15 18,1 C 81 % 1012,5 hPa 0,0 l/m 0,0 km/h (0 Bft) S 176 0 min 0,000 mm 0,0 UV-I 0 W/m 14,8 C 18,1 C 0,0 km/h (0 Bft) 0,00 %
09.09.2014 20:30 18,1 C 81 % 1012,8 hPa 0,0 l/m 0,0 km/h (0 Bft) S 176 0 min 0,000 mm 0,0 UV-I 0 W/m 14,8 C 18,1 C 0,0 km/h (0 Bft) 0,00 %
09.09.2014 20:45 18,0 C 83 % 1012,7 hPa 0,0 l/m 0,0 km/h (0 Bft) SW 226 0 min 0,000 mm 0,0 UV-I 0 W/m 15,1 C 18,0 C 0,0 km/h (0 Bft) 0,00 %
09.09.2014 21:00 17,8 C 83 % 1013,1 hPa 0,0 l/m 0,0 km/h (0 Bft) SW 227 0 min 0,000 mm 0,0 UV-I 0 W/m 14,9 C 17,8 C 0,0 km/h (0 Bft) 0,00 %
09.09.2014 21:15 17,8 C 84 % 1013,2 hPa 0,0 l/m 0,0 km/h (0 Bft) S 182 0 min 0,000 mm 0,0 UV-I 0 W/m 15,1 C 17,8 C 0,0 km/h (0 Bft) 0,00 %
09.09.2014 21:30 17,7 C 84 % 1013,3 hPa 0,0 l/m 0,0 km/h (0 Bft) W-SW 251 0 min 0,000 mm 0,0 UV-I 0 W/m 15,0 C 17,7 C 0,0 km/h (0 Bft) 0,00 %
09.09.2014 21:45 17,5 C 84 % 1013,4 hPa 0,0 l/m 0,0 km/h (0 Bft) SW 215 0 min 0,000 mm 0,0 UV-I 0 W/m 14,8 C 17,5 C 0,0 km/h (0 Bft) 0,00 %
09.09.2014 22:00 17,3 C 83 % 1013,5 hPa 0,0 l/m 0,0 km/h (0 Bft) SO 129 0 min 0,000 mm 0,0 UV-I 0 W/m 14,4 C 17,3 C 0,0 km/h (0 Bft) 0,00 %
09.09.2014 22:15 17,0 C 83 % 1013,3 hPa 0,0 l/m 0,0 km/h (0 Bft) SW 229 0 min 0,000 mm 0,0 UV-I 0 W/m 14,1 C 17,0 C 4,0 km/h (1 Bft) 0,00 %
09.09.2014 22:30 16,6 C 82 % 1013,4 hPa 0,0 l/m 0,0 km/h (0 Bft) W 279 0 min 0,000 mm 0,0 UV-I 0 W/m 13,5 C 16,6 C 0,0 km/h (0 Bft) 0,00 %
09.09.2014 22:45 16,4 C 83 % 1013,4 hPa 0,0 l/m 0,0 km/h (0 Bft) W-SW 248 0 min 0,000 mm 0,0 UV-I 0 W/m 13,5 C 16,4 C 0,0 km/h (0 Bft) 0,00 %
09.09.2014 23:00 16,1 C 83 % 1013,5 hPa 0,0 l/m 0,4 km/h (0 Bft) S-SW 201 0 min 0,000 mm 0,0 UV-I 0 W/m 13,2 C 16,1 C 0,0 km/h (0 Bft) 0,00 %
09.09.2014 23:15 15,9 C 85 % 1013,9 hPa 0,0 l/m 0,0 km/h (0 Bft) S-SW 207 0 min 0,000 mm 0,0 UV-I 0 W/m 13,4 C 15,9 C 0,0 km/h (0 Bft) 0,00 %
09.09.2014 23:30 15,8 C 86 % 1013,8 hPa 0,0 l/m 0,0 km/h (0 Bft) SW 230 0 min 0,000 mm 0,0 UV-I 0 W/m 13,5 C 15,8 C 0,0 km/h (0 Bft) 0,00 %
09.09.2014 23:45 15,6 C 87 % 1013,8 hPa 0,0 l/m 0,0 km/h (0 Bft) NW 324 0 min 0,000 mm 0,0 UV-I 0 W/m 13,4 C 15,6 C 0,0 km/h (0 Bft) 0,00 %
_ Min-Zeit 02:45 17:15 17:15 - 00:00 - - - - - - 02:45 02:45 00:00 00:00
Minimum _ 13,7 C 56 % 1010,7 hPa - 0,0 km/h (0 Bft) - - - - - - 13,1 C 13,7 C 0,0 km/h (0 Bft) 0,00 %
_ Max-Zeit 17:15 06:30 06:00 04:00 04:00 - - 06:45 00:00 11:30 13:45 11:30 17:15 03:15 00:00
Maximum _ 23,8 C 97 % 1014,6 hPa 3,3 l/m 5,8 km/h
W-SW (2 Bft)
- - 15 min 0,000 mm 7,0 UV-I 738 W/m 16,1 C 23,8 C 7,9 km/h
W-NW (2 Bft)
0,00 %
Durchschnitt _ 18,1 C 81 % 1013,2 hPa #5,1 l/m 0,1 km/h (0 Bft) SW - #4:15 h #0,000 mm 2,8 UV-I 262 W/m 14,6 C 18,1 C 0,5 km/h (0 Bft) 0,00 %